Location: Christianberg
(48.9086°N, 14.0209°E)
Time: 21:39:16
(UTC+00:00)

USA 229 DEB - Pass Details

Date: 20 June 2021
Orbit: 955 x 1257 km, 63.4° (Epoch: 25 July)

Event Time Altitude Azimuth Distance (km) Brightness Sun altitude
Exits shadow 00:22:26 17° 230° (SW) 2,275 4.9 -15.6°
Maximum altitude 00:27:34 75° 314° (NW) 1,070 3.7 -15.4°
Drops below altitude 10° 00:34:30 10° 41° (NE) 2,945 7.2 -15.0°
Sets 00:37:17 0° 43° (NE) 3,952 8.1 -14.8°
